sat.trackr.live / text

‹ back to catalog

STARLINK-32898

NORAD 62998 · 2025-031T

PAYLOAD ACTIVE UNKNOWN

§ Identity

Operator
Country
US
Launch date
2025-02-11
Launch site
AFETR
Launch vehicle
Mass (kg)
RCS (m²)

Purposes: comms

External: N2YO · Heavens-Above · Gunter

§ Orbital elements

Epoch: 2026-09-21T08:00:03.000384Z

Period
94.27 min
Inclination
43.0025°
Eccentricity
0.0001759
Mean motion
15.27596225 rev/d
Perigee alt
481.8 km
Apogee alt
484.2 km
Semi-major
6,861.1 km
B*
-9.2133e-4
RAAN
118.6776°
Arg perigee
266.2986°
Mean anomaly
95.2492°
Rev number
588

§ Raw data

STARLINK-328981 62998U 25031T   26264.33336806 -.00025541  00000+0 -92133-3 0  99962 62998  43.0025 118.6776 0001759 266.2986  95.2492 15.27596225  5883

JSON: /api/v1/satellites/62998 · /tle

For live sub-satellite position, see the globe view (requires WebGL).

§ Visibility from observer

Set your observer location to see the next 7 days of passes ≥ 10°. The values pass through the URL so the page stays shareable.

No JS? Fill the form by hand. The geolocation button needs JavaScript.